Location: El Mouella
(16.4949°N, 9.1594°W)
Time: 02:42:54
(UTC+00:00)

H-2A R/B - Pass Details

Date: 28 September 2020
Orbit: 734 x 836 km, 98.2° (Epoch: 20 October)

Event Time Altitude Azimuth Distance (km) Brightness Sun altitude
Exits shadow 20:38:59 26° 219° (SW) 1,431 3.6 -32.3°
Maximum altitude 20:40:51 35° 260° (W) 1,195 3.4 -32.7°
Drops below altitude 10° 20:45:25 10° 326° (NW) 2,288 4.9 -33.8°
Sets 20:47:55 0° 335° (NNW) 3,231 5.6 -34.4°
